TimeMDT,TemperatureF,Dew PointF,Humidity,Sea Level PressureIn,VisibilityMPH,Wind Direction,Wind SpeedMPH,Gust SpeedMPH,PrecipitationIn,Events,Conditions,WindDirDegrees,DateUTC
12:51 AM,39.9,37.0,89,29.61,10.0,Calm,Calm,-,N/A,,Overcast,0,2013-04-08 06:51:00
1:51 AM,41.0,37.0,86,29.56,10.0,Calm,Calm,-,N/A,,Overcast,0,2013-04-08 07:51:00
2:51 AM,39.9,37.0,89,29.52,10.0,East,4.6,-,N/A,,Overcast,90,2013-04-08 08:51:00
3:51 AM,39.9,37.0,89,29.48,10.0,SW,9.2,-,N/A,,Overcast,220,2013-04-08 09:51:00
4:37 AM,39.2,37.4,93,29.54,10.0,East,5.8,-,N/A,,Overcast,100,2013-04-08 10:37:00
4:51 AM,39.9,37.0,89,29.49,10.0,Calm,Calm,-,N/A,,Overcast,0,2013-04-08 10:51:00
5:51 AM,39.9,37.0,89,29.44,10.0,Variable,4.6,-,N/A,,Overcast,0,2013-04-08 11:51:00
6:51 AM,39.0,35.1,86,29.49,10.0,NNW,6.9,-,N/A,,Overcast,340,2013-04-08 12:51:00
7:51 AM,37.9,35.1,89,29.49,10.0,NW,3.5,-,N/A,,Mostly Cloudy,310,2013-04-08 13:51:00
8:51 AM,39.0,35.1,86,29.48,10.0,NNE,6.9,-,N/A,,Overcast,20,2013-04-08 14:51:00
9:51 AM,39.9,35.1,83,29.49,10.0,Calm,Calm,-,N/A,,Overcast,0,2013-04-08 15:51:00
10:20 AM,41.0,35.6,81,29.50,10.0,ENE,3.5,-,N/A,,Overcast,70,2013-04-08 16:20:00
10:37 AM,41.0,35.6,81,29.50,10.0,Calm,Calm,-,N/A,,Overcast,0,2013-04-08 16:37:00
10:51 AM,41.0,36.0,82,29.48,10.0,Calm,Calm,-,N/A,,Overcast,0,2013-04-08 16:51:00
11:51 AM,43.0,36.0,76,29.47,10.0,North,10.4,-,N/A,,Overcast,360,2013-04-08 17:51:00
12:19 PM,42.8,35.6,76,29.50,10.0,North,9.2,-,N/A,,Overcast,10,2013-04-08 18:19:00
12:36 PM,42.8,37.4,81,29.50,10.0,North,6.9,-,0.00,Rain,Light Rain,360,2013-04-08 18:36:00
12:51 PM,43.0,37.9,82,29.47,10.0,North,6.9,-,0.00,Rain,Light Rain,360,2013-04-08 18:51:00
1:21 PM,42.8,37.4,81,29.50,8.0,North,15.0,-,0.01,Rain,Light Rain,360,2013-04-08 19:21:00
1:51 PM,43.0,37.0,80,29.47,10.0,North,13.8,-,0.01,Rain,Light Rain,350,2013-04-08 19:51:00
2:11 PM,42.8,37.4,81,29.49,10.0,North,17.3,-,0.00,Rain,Light Rain,360,2013-04-08 20:11:00
2:41 PM,42.8,39.2,87,29.49,10.0,North,17.3,-,0.01,Rain,Light Rain,360,2013-04-08 20:41:00
2:51 PM,43.0,37.9,82,29.46,10.0,North,16.1,-,0.01,Rain,Light Rain,10,2013-04-08 20:51:00
3:00 PM,42.8,39.2,87,29.50,10.0,North,18.4,-,0.00,Rain,Light Rain,360,2013-04-08 21:00:00
3:27 PM,42.8,39.2,87,29.49,10.0,North,18.4,26.5,0.00,Rain,Light Rain,350,2013-04-08 21:27:00
3:51 PM,43.0,39.0,86,29.47,10.0,North,20.7,31.1,0.00,,Overcast,360,2013-04-08 21:51:00
4:00 PM,42.8,37.4,81,29.49,10.0,North,25.3,33.4,N/A,,Overcast,350,2013-04-08 22:00:00
4:32 PM,41.0,35.6,81,29.50,10.0,North,21.9,31.1,0.01,Rain,Light Rain,360,2013-04-08 22:32:00
4:51 PM,41.0,36.0,82,29.48,10.0,North,24.2,31.1,0.01,,Overcast,360,2013-04-08 22:51:00
5:51 PM,39.9,35.1,83,29.49,10.0,North,23.0,29.9,N/A,,Overcast,360,2013-04-08 23:51:00
6:45 PM,39.2,33.8,81,29.53,10.0,North,25.3,29.9,0.00,Rain,Light Rain,360,2013-04-09 00:45:00
6:51 PM,39.0,34.0,82,29.52,10.0,North,21.9,32.2,0.00,Rain,Light Rain,360,2013-04-09 00:51:00
7:51 PM,36.0,33.1,89,29.56,9.0,North,24.2,29.9,0.02,Rain,Light Rain,360,2013-04-09 01:51:00
8:13 PM,35.6,33.8,93,29.57,7.0,North,23.0,31.1,0.00,Snow,Light Snow,360,2013-04-09 02:13:00
8:27 PM,33.8,32.0,93,29.58,5.0,North,20.7,27.6,0.01,Snow,Light Snow,360,2013-04-09 02:27:00
8:51 PM,34.0,32.0,92,29.61,3.0,North,19.6,-,0.02,Snow,Light Snow,10,2013-04-09 02:51:00
9:25 PM,33.8,32.0,93,29.63,7.0,North,12.7,21.9,0.00,Snow,Light Snow,10,2013-04-09 03:25:00
9:51 PM,34.0,32.0,92,29.65,6.0,North,16.1,21.9,0.00,Snow,Light Snow,10,2013-04-09 03:51:00
9:56 PM,33.8,32.0,93,29.65,5.0,NNE,13.8,21.9,0.00,Snow,Light Snow,20,2013-04-09 03:56:00
10:42 PM,33.8,30.2,87,29.68,2.5,NE,5.8,-,0.00,Snow,Light Snow,40,2013-04-09 04:42:00
10:48 PM,33.8,30.2,87,29.69,2.0,North,8.1,-,0.00,Snow,Light Snow,10,2013-04-09 04:48:00
11:04 PM,32.0,30.2,93,29.69,1.5,NNE,6.9,-,0.00,Snow,Light Snow,30,2013-04-09 05:04:00
11:31 PM,32.0,30.2,93,29.70,1.0,North,15.0,-,0.02,Snow,Light Snow,10,2013-04-09 05:31:00
11:51 PM,32.0,30.0,92,29.70,1.5,North,10.4,-,0.03,Snow,Light Snow,360,2013-04-09 05:51:00
11:59 PM,30.2,30.2,100,29.71,1.5,North,15.0,-,0.00,Snow,Light Snow,350,2013-04-09 05:59:00